Location: Forst
(46.9333°N, 15.4333°E)
Time: 05:56:01
(UTC+00:00)

Lacrosse 5 rocket - Pass Details

Date: 19 April 2021
Orbit: 460 x 634 km, 57.0° (Epoch: 12 May)

Event Time Altitude Azimuth Distance (km) Brightness Sun altitude
Rises 21:00:37 0° 304° (NW) 2,754 5.9 -26.0°
Reaches altitude 10° 21:03:07 10° 318° (NW) 1,889 5.0 -26.3°
Maximum altitude 21:06:45 26° 15° (NNE) 1,194 3.4 -26.6°
Enters shadow 21:08:09 22° 45° (NE) 1,336 3.4 -26.7°
